Hourly Data Report for July 03, 2015

All times are specified in Local Standard Time (LST). Add 1 hour to adjust for Daylight Saving Time where and when it is observed.

Metadata including Station Name, Province, Latitude, Longitude, Elevation, Climate ID, WMO ID, TC ID
CHATHAM KENT
ONTARIO
Latitude: 42°18'21.000" N Longitude: 82°04'57.000" W Elevation: 196.60 m
Climate ID: 6131414 WMO ID: TC ID: YCK
Hourly Data Report for July 3, 2015
Temp Definition
°C

Dew Point Temp Definition
°C

Rel Hum Definition
%

Wind Dir Definition
10's deg
Wind Spd Definition
km/h

Visibility Definition
km

Stn Press Definition
kPa

Hmdx Definition

Wind Chill Definition

Weather Definition

00:00 Legend Double Dagger 12.5 10.8 89 3 5 16.1 99.28 LegendNANA
01:00 Legend Double Dagger 11.5 10.4 93 36 5 16.1 99.26 LegendNANA
02:00 Legend Double Dagger 11.4 9.2 86 3 5 16.1 99.20 LegendNANA
03:00 Legend Double Dagger 10.3 8.9 91   0 16.1 99.21 LegendNANA
04:00 Legend Double Dagger 10.3 8.7 90 LegendMM LegendMM 16.1 99.19 LegendNANA
05:00 Legend Double Dagger 9.9 8.6 91 4 4 16.1 99.19 LegendNANA
06:00 Legend Double Dagger 10.8 9.3 91 LegendMM LegendMM 16.1 99.20 LegendNANA
07:00 Legend Double Dagger 13.7 11.6 87 7 4 16.1 99.25 LegendNANA
08:00 Legend Double Dagger 17.4 15.1 86 LegendMM LegendMM 16.1 99.28 LegendNANA
09:00 Legend Double Dagger 19.5 14.0 70 14 15 16.1 99.24 LegendNANA
10:00 Legend Double Dagger 20.4 13.7 65 13 13 16.1 99.21 LegendNANA
11:00 Legend Double Dagger 20.8 11.9 56 13 18 16.1 99.20 LegendNANA
12:00 Legend Double Dagger 21.0 11.7 55 11 17 16.1 99.19 LegendNANA
13:00 Legend Double Dagger 21.9 10.3 47 12 18 16.1 99.17 LegendNANA
14:00 Legend Double Dagger 21.9 12.3 54 12 13 16.1 99.19 LegendNANA
15:00 Legend Double Dagger 21.9 10.4 48 7 11 16.1 99.11 LegendNANA
16:00 Legend Double Dagger 21.0 9.5 47 7 15 16.1 99.04 LegendNANA
17:00 Legend Double Dagger 20.6 10.0 50 10 9 16.1 99.04 LegendNANA
18:00 Legend Double Dagger 20.1 11.0 56 9 8 16.1 98.99 LegendNANA
19:00 Legend Double Dagger 20.2 12.5 61 11 8 16.1 98.96 LegendNANA
20:00 Legend Double Dagger 18.6 12.2 66 13 4 16.1 98.94 LegendNANA
21:00 Legend Double Dagger 15.6 13.0 84 15 4 16.1 98.99 LegendNANA
22:00 Legend Double Dagger 15.0 12.5 85   0 16.1 99.01 LegendNANA
23:00 Legend Double Dagger 13.6 12.0 90   0 16.1 98.98 LegendNANA

Notes on Data Quality.

Legend
  • E = Estimated
  • M = Missing
  • NA = Not Available
  • ‡ = Partner data that is not subject to review by the National Climate Archives